| time (UTC) | temp F | wind direction | speed knots | gust knots | rain 1hr in | rain 24hr in | rain mn in | humidity % | barometer mb |
| 20260506201556 | 67 | 157 | 5.2 | 10.4 | 0.00 | 0.00 | 0.00 | 77 | 1005.7 |
| 20260506200109 | 67 | 229 | 3.5 | 12.2 | 0.00 | 0.00 | 0.00 | 78 | 1006.1 |
| 20260506194611 | 65 | 180 | 3.5 | 11.3 | 0.00 | 0.00 | 0.00 | 79 | 1006.6 |
| 20260506193052 | 64 | 127 | 4.3 | 13.9 | 0.00 | 0.00 | 0.00 | 82 | 1006.6 |
| 20260506191556 | 63 | 150 | 3.5 | 14.8 | 0.00 | 0.00 | 0.00 | 85 | 1006.6 |
| 20260506190055 | 62 | 167 | 4.3 | 9.6 | 0.00 | 0.00 | 0.00 | 86 | 1006.8 |
| 20260506184604 | 61 | 123 | 5.2 | 13.0 | 0.00 | 0.00 | 0.00 | 87 | 1007.1 |
| 20260506183105 | 62 | 159 | 3.5 | 12.2 | 0.00 | 0.00 | 0.00 | 84 | 1007.4 |
| 20260506181558 | 62 | 146 | 4.3 | 13.0 | 0.00 | 0.00 | 0.00 | 82 | 1007.4 |
| 20260506180101 | 62 | 114 | 7.0 | 15.6 | 0.00 | 0.00 | 0.00 | 82 | 1007.6 |
| 20260506174549 | 62 | 160 | 7.0 | 15.6 | 0.00 | 0.00 | 0.00 | 81 | 1007.9 |
| 20260506173108 | 62 | 132 | 5.2 | 15.6 | 0.00 | 0.00 | 0.00 | 81 | 1008.1 |
| 20260506171600 | 64 | 126 | 7.0 | 13.0 | 0.00 | 0.00 | 0.00 | 79 | 1008.0 |
| 20260506170054 | 63 | 116 | 4.3 | 14.8 | 0.00 | 0.00 | 0.00 | 81 | 1008.1 |
| 20260506164555 | 63 | 158 | 7.0 | 16.5 | 0.00 | 0.00 | 0.00 | 80 | 1008.6 |
| 20260506163055 | 63 | 164 | 7.0 | 17.4 | 0.00 | 0.00 | 0.00 | 81 | 1009.0 |
| 20260506161603 | 63 | 176 | 5.2 | 17.4 | 0.00 | 0.00 | 0.00 | 81 | 1009.1 |
| 20260506160055 | 63 | 139 | 5.2 | 13.9 | 0.00 | 0.00 | 0.00 | 81 | 1009.3 |
| 20260506154556 | 63 | 122 | 5.2 | 18.2 | 0.00 | 0.00 | 0.00 | 81 | 1009.2 |
| 20260506153054 | 63 | 122 | 7.0 | 18.2 | 0.00 | 0.00 | 0.00 | 80 | 1009.4 |
| 20260506151605 | 63 | 111 | 6.1 | 14.8 | 0.00 | 0.00 | 0.00 | 81 | 1009.4 |
| 20260506150055 | 63 | 117 | 6.1 | 13.9 | 0.00 | 0.00 | 0.00 | 80 | 1009.3 |
| 20260506144548 | 64 | 163 | 6.1 | 16.5 | 0.00 | 0.00 | 0.00 | 78 | 1009.5 |
| 20260506143055 | 64 | 116 | 6.1 | 16.5 | 0.00 | 0.00 | 0.00 | 79 | 1009.5 |
| 20260506141549 | 62 | 157 | 7.0 | 18.2 | 0.00 | 0.00 | 0.00 | 80 | 1009.6 |
| 20260506140103 | 63 | 128 | 5.2 | 17.4 | 0.00 | 0.00 | 0.00 | 80 | 1009.5 |
| 20260506134553 | 64 | 118 | 7.8 | 17.4 | 0.00 | 0.00 | 0.00 | 78 | 1009.4 |
| 20260506133052 | 64 | 134 | 4.3 | 13.9 | 0.00 | 0.00 | 0.00 | 78 | 1009.7 |
| 20260506131555 | 64 | 87 | 7.0 | 18.2 | 0.00 | 0.00 | 0.00 | 78 | 1009.9 |
| 20260506130110 | 63 | 112 | 7.8 | 16.5 | 0.00 | 0.00 | 0.00 | 79 | 1009.8 |
| 20260506124553 | 62 | 220 | 6.1 | 16.5 | 0.00 | 0.00 | 0.00 | 81 | 1009.8 |
| 20260506123055 | 61 | 113 | 4.3 | 17.4 | 0.00 | 0.00 | 0.00 | 82 | 1009.6 |
| 20260506121603 | 61 | 145 | 8.7 | 19.1 | 0.00 | 0.00 | 0.00 | 81 | 1009.6 |
| 20260506120100 | 61 | 109 | 6.1 | 14.8 | 0.00 | 0.00 | 0.00 | 82 | 1009.5 |
| 20260506114554 | 60 | 132 | 6.1 | 13.9 | 0.00 | 0.00 | 0.00 | 83 | 1009.6 |
| 20260506113049 | 60 | 163 | 5.2 | 13.9 | 0.00 | 0.00 | 0.00 | 84 | 1009.7 |
| 20260506111551 | 60 | 186 | 6.1 | 15.6 | 0.00 | 0.00 | 0.00 | 85 | 1009.6 |
| 20260506110100 | 59 | 132 | 7.0 | 13.9 | 0.00 | 0.00 | 0.00 | 86 | 1009.7 |
| 20260506104553 | 58 | 258 | 7.0 | 13.9 | 0.00 | 0.00 | 0.00 | 86 | 1009.4 |
| 20260506103049 | 58 | 163 | 5.2 | 14.8 | 0.00 | 0.00 | 0.00 | 87 | 1009.6 |
| 20260506101559 | 58 | 171 | 4.3 | 12.2 | 0.00 | 0.00 | 0.00 | 87 | 1009.5 |
| 20260506100051 | 58 | 167 | 3.5 | 12.2 | 0.00 | 0.00 | 0.00 | 87 | 1009.5 |
| 20260506094556 | 58 | 157 | 2.6 | 13.0 | 0.00 | 0.00 | 0.00 | 86 | 1009.3 |
| 20260506093100 | 58 | 146 | 5.2 | 13.9 | 0.00 | 0.00 | 0.00 | 86 | 1009.6 |
| 20260506091552 | 58 | 186 | 5.2 | 13.9 | 0.00 | 0.00 | 0.00 | 86 | 1009.6 |
| 20260506090050 | 58 | 128 | 6.1 | 15.6 | 0.00 | 0.00 | 0.00 | 86 | 1009.8 |
| 20260506084553 | 58 | 126 | 4.3 | 13.0 | 0.00 | 0.00 | 0.00 | 86 | 1010.0 |
| 20260506083053 | 58 | 126 | 4.3 | 11.3 | 0.00 | 0.00 | 0.00 | 86 | 1010.1 |
| 20260506081549 | 58 | 150 | 3.5 | 8.7 | 0.00 | 0.00 | 0.00 | 85 | 1009.9 |
| 20260506073058 | 59 | 157 | 5.2 | 13.9 | 0.00 | 0.00 | 0.00 | 84 | 1010.3 |
| 20260506071608 | 59 | 131 | 6.1 | 14.8 | 0.00 | 0.00 | 0.00 | 84 | 1010.3 |
| 20260506061551 | 59 | 138 | 5.2 | 16.5 | 0.00 | 0.00 | 0.00 | 83 | 1010.4 |
| 20260506044559 | 60 | 162 | 5.2 | 14.8 | 0.00 | 0.00 | 0.00 | 80 | 1010.9 |
| 20260506043054 | 60 | 141 | 7.8 | 17.4 | 0.00 | 0.00 | 0.00 | 80 | 1010.9 |
| 20260506041604 | 60 | 121 | 6.1 | 17.4 | 0.00 | 0.00 | 0.00 | 80 | 1011.1 |
| 20260506040054 | 60 | 204 | 6.1 | 15.6 | 0.00 | 0.00 | 0.00 | 79 | 1010.9 |
| 20260506034554 | 61 | 244 | 7.8 | 18.2 | 0.00 | 0.00 | 0.00 | 78 | 1011.0 |
| 20260506033100 | 61 | 123 | 6.1 | 20.0 | 0.00 | 0.00 | 0.00 | 78 | 1011.2 |
| 20260506031547 | 62 | 140 | 7.0 | 20.0 | 0.00 | 0.00 | 0.00 | 77 | 1011.1 |
| 20260506030053 | 62 | 137 | 7.8 | 17.4 | 0.00 | 0.00 | 0.00 | 76 | 1011.1 |
| 20260506024553 | 62 | 138 | 6.1 | 17.4 | 0.00 | 0.00 | 0.00 | 76 | 1011.0 |
| 20260506023053 | 62 | 165 | 7.0 | 18.2 | 0.00 | 0.00 | 0.00 | 76 | 1011.3 |
| 20260506021556 | 62 | 154 | 6.1 | 18.2 | 0.00 | 0.00 | 0.00 | 76 | 1011.3 |
| 20260506020051 | 62 | 172 | 7.0 | 13.9 | 0.00 | 0.00 | 0.00 | 76 | 1011.4 |
| 20260506014555 | 62 | 125 | 7.0 | 16.5 | 0.00 | 0.00 | 0.00 | 76 | 1011.3 |
| 20260506013052 | 62 | 138 | 6.1 | 15.6 | 0.00 | 0.00 | 0.00 | 76 | 1011.2 |
| 20260506011551 | 62 | 163 | 7.0 | 15.6 | 0.00 | 0.00 | 0.00 | 76 | 1011.1 |
| 20260506010051 | 62 | 163 | 4.3 | 13.9 | 0.00 | 0.00 | 0.00 | 76 | 1010.8 |
| 20260506004558 | 62 | 192 | 6.1 | 13.9 | 0.00 | 0.00 | 0.00 | 75 | 1010.7 |
| 20260506003050 | 63 | 190 | 7.0 | 21.7 | 0.00 | 0.00 | 0.00 | 73 | 1010.8 |
| 20260506001609 | 63 | 110 | 6.1 | 19.1 | 0.00 | 0.00 | 0.00 | 72 | 1010.7 |
| 20260506000051 | 64 | 144 | 5.2 | 19.1 | 0.00 | 0.00 | 0.00 | 71 | 1010.4 |
| 20260505234559 | 64 | 155 | 7.8 | 19.1 | 0.00 | 0.00 | 0.00 | 69 | 1010.2 |
| 20260505233057 | 65 | 92 | 7.0 | 16.5 | 0.00 | 0.00 | 0.00 | 68 | 1010.2 |
| 20260505231557 | 65 | 92 | 6.1 | 17.4 | 0.00 | 0.00 | 0.00 | 67 | 1010.0 |
| 20260505230113 | 65 | 165 | 7.8 | 25.2 | 0.00 | 0.00 | 0.00 | 67 | 1010.0 |
| 20260505224611 | 65 | 225 | 9.6 | 20.9 | 0.00 | 0.00 | 0.00 | 67 | 1009.9 |
| 20260505223100 | 66 | 196 | 8.7 | 25.2 | 0.00 | 0.00 | 0.00 | 67 | 1009.8 |
| 20260505221553 | 66 | 184 | 7.8 | 23.5 | 0.00 | 0.00 | 0.00 | 66 | 1009.8 |
| 20260505220052 | 67 | 138 | 7.8 | 20.0 | 0.00 | 0.00 | 0.00 | 65 | 1009.8 |
| 20260505214605 | 67 | 124 | 8.7 | 20.0 | 0.00 | 0.00 | 0.00 | 66 | 1009.6 |
| 20260505213100 | 67 | 132 | 8.7 | 21.7 | 0.00 | 0.00 | 0.00 | 64 | 1009.4 |
| 20260505211602 | 68 | 110 | 8.7 | 23.5 | 0.00 | 0.00 | 0.00 | 63 | 1009.5 |
| 20260505210107 | 69 | 190 | 7.0 | 16.5 | 0.00 | 0.00 | 0.00 | 63 | 1009.1 |
| 20260505204549 | 69 | 187 | 8.7 | 18.2 | 0.00 | 0.00 | 0.00 | 63 | 1009.0 |
| 20260505203051 | 68 | 128 | 7.0 | 19.1 | 0.00 | 0.00 | 0.00 | 65 | 1009.0 |